CAPE
0 0 0 0 2 0 0 1 0 2 2 0 0 0 0 4 3 3 0 0 0 0
0 0 0 0 0 0 0 0 0 0 0 1 0 0 0 11 2 7 6 0 0 0
0 0 0 1 0 0 1 1 0 0 0 0 0 0 4 15 5 6 6 1 1 0
1 1 0 0 0 1 2 3 2 0 0 0 0 0 0 1 0 0 4 0 0 0
1 1 0 1 1 0 0 1 0 0 0 0 0 0 0 0 0 0 0 0 0 0
2 2 2 2 2 1 1 0 1 0 0 0 0 0 0 0 0 0 0 0 0 0
2 1 2 2 1 1 1 1 1 0 0 0 0 0 0 0 0 0 0 0 0 0
0 0 0 0 0 0 0 0 0 0 0 0 1 1 0 0 0 0 0 0 0 0
0 0 0 0 0 0 0 0 0 0 0 0 0 0 0 0 0 0 0 0 0 0
0 0 0 0 0 0 0 0 0 0 0 0 0 0 0 0 0 0 0 0 0 0
0 0 0 0 0 0 0 0 0 0 0 0 0 0 0 0 0 0 0 0 0 0
0 0 0 0 0 0 0 0 0 0 0 0 0 0 0 0 0 0 0 0 0 0
0 0 0 0 0 0 0 0 0 0 0 0 0 0 0 0 0 0 0 0 0 0
0 0 0 0 0 0 0 0 0 0 0 0 0 0 0 0 0 0 0 0 0 0
CIN
-21 -0 -0 -0 -4 -3 -0 -0 -0 -27 -0 -0 -0 -0 -0 -28 -36 -62 -0 -3 -0 -0
-0 -0 -0 -0 -0 -0 -0 -0 -0 -0 -0 -0 -0 -0 -0 -17 -24 -47 -69 -0 -3 -0
-0 -0 -0 -0 -0 -0 -0 -0 -0 -0 -0 -0 -0 -0 -32 -19 -39 -44 -73 -73 -76 -0
-0 -0 -0 -0 -0 -0 -0 -0 -0 -0 -0 -0 -0 -0 -0 -24 -0 -0 -110 -0 -0 -0
-0 -0 -0 -0 -0 -0 -0 -0 -0 -0 -0 -0 -0 -0 -0 -0 -0 -0 -0 -0 -0 -0
-0 -0 -0 -0 -0 -0 -0 -0 -0 -0 -0 -0 -0 -0 -0 -0 -0 -0 -0 -0 -0 -0
-0 -0 -0 -0 -0 -0 -0 -0 -0 -0 -0 -0 -0 -0 -0 -0 -0 -0 -0 -0 -0 -0
-0 -0 -0 -0 -0 -0 -0 -0 -0 -0 -0 -0 -0 -0 -0 -0 -0 -0 -0 -0 -0 -0
-0 -0 -0 -0 -0 -0 -0 -0 -0 -0 -0 -0 -0 -0 -0 -0 -0 -0 -0 -0 -0 -0
-0 -0 -0 -0 -0 -0 -0 -0 -0 -0 -0 -0 -0 -0 -0 -0 -0 -0 -0 -0 -0 -0
-0 -0 -0 -0 -0 -0 -0 -0 -0 -0 -0 -0 -0 -0 -0 -0 -0 -0 -0 -0 -0 -0
-0 -0 -0 -0 -0 -0 -0 -0 -0 -0 -0 -0 -0 -0 -0 -0 -0 -0 -0 -0 -0 -0
-0 -0 -0 -0 -0 -0 -0 -0 -0 -0 -0 -0 -0 -0 -0 -0 -0 -0 -0 -0 -0 -0
-0 -0 -0 -0 -0 -0 -0 -0 -0 -0 -0 -0 -0 -0 -0 -0 -0 -0 -0 -0 -0 -0
Wind_Speed
11 13 17 19 22 23 26 27 22 23 21 18 18 20 24 12 10 10 9 11 9 8
11 14 16 22 22 20 19 20 15 11 11 16 17 14 19 11 11 8 8 8 8 6
8 10 11 18 16 10 13 12 8 5 10 9 12 16 14 11 9 10 9 7 5 9
11 11 12 17 16 5 6 9 5 7 7 9 8 12 10 8 8 8 7 5 6 11
11 13 15 10 7 6 2 3 4 6 8 7 6 7 5 6 4 4 5 7 5 5
10 11 17 15 4 3 5 4 4 3 5 4 2 2 2 3 3 3 5 4 6 7
15 12 11 6 4 4 4 4 6 7 3 1 2 2 2 3 5 4 8 11 12 14
22 20 14 10 5 5 5 5 3 2 3 3 4 3 3 5 7 7 9 8 9 12
21 20 15 9 17 17 14 11 9 8 8 6 5 4 4 5 5 5 6 7 9 10
22 21 21 16 12 16 16 15 14 14 14 14 13 13 12 10 9 8 8 8 9 11
21 21 20 17 14 13 14 14 15 15 14 14 13 13 12 11 11 10 10 10 10 11
18 19 20 20 20 20 19 18 16 15 15 15 14 13 13 12 11 11 12 12 12 13
17 17 18 18 18 17 17 17 16 15 15 14 14 14 13 13 13 13 13 14 14 14
16 17 17 17 17 17 16 15 14 14 13 13 13 13 12 12 12 12 13 14 15 16
Wind_Direction
319 305 304 302 290 281 264 259 260 259 249 235 216 214 225 215 205 220 226 248 259 279
318 323 326 314 296 278 266 259 262 259 231 222 209 199 223 206 222 220 246 256 276 279
53 24 19 3 330 291 259 252 253 228 216 162 183 220 231 238 242 256 262 257 278 292
75 355 77 356 15 6 236 231 204 193 205 224 213 225 232 244 247 242 261 274 280 283
14 63 59 289 271 30 93 206 167 239 214 218 219 234 239 237 242 230 280 284 284 294
357 30 77 56 288 303 254 257 245 218 220 215 204 240 270 220 249 279 284 292 305 317
53 43 42 356 344 327 299 325 255 239 244 234 273 279 311 300 263 279 287 300 303 305
86 72 56 38 1 9 12 12 335 298 287 321 301 300 314 304 297 297 298 317 328 326
89 80 59 41 60 62 52 47 47 49 47 29 355 353 351 26 33 16 9 355 352 351
103 96 90 72 56 65 63 62 57 58 62 61 61 65 65 59 47 37 23 12 2 354
103 99 93 78 67 62 62 64 66 66 64 61 57 63 62 57 48 36 23 14 8 2
104 101 99 96 94 90 85 78 71 64 64 62 58 58 56 50 37 27 15 9 5 2
106 104 101 98 94 85 83 81 75 68 59 57 57 57 56 51 45 35 25 13 7 1
112 109 106 100 95 93 85 78 71 66 56 50 52 53 52 46 36 31 22 14 6 0